ATLAS 5 CENTAUR R/B, 66455

Orbit data source: Space-Track

ATLAS 5 CENTAUR R/B, 66455 is space debris in MEO originally from a launch on Thu, 13 Nov 2025 UTC launched from the Air Force Eastern Test Range (AFETR). Debris objects in space refer to the collection of defunct objects orbiting the Earth. Examples of debris include non-operational satellites, rocket bodies, and fragments generated from explosions, collisions, or faulty payload assembly.

Loading next visibility...
Identifier
66455, 2025-261B
Orbit
MEO
Country
Flag of USUS
Related business
Flag of USUnited Launch Alliance/Lockheed Martin (US)
Manufacturer
ULA Decatur
Mission
Spacecraft
Bus & Motor
CENTAUR SEC, RL10A-4-2
Mass
~2,020 kg wet, 2,020 kg dry
Launch date (UTC)
2025-11-13 (7 months ago)
Launch vehicle
Unknown
Launch site
Air Force Eastern Test Range (AFETR)
Object type
Payload
Rocket body
Debris
Shape & HBR
Cyl + 1 Nozzle, 8.0 m
Radar Cross Section
32.260 m², Large (>1 m²)

Expand to show TLE details & history
Last TLE update: 14 hours ago

TLE from 14 hours ago
0 ATLAS 5 CENTAUR R/B
1 66455U 25261B   26171.40025299 -.00000074  00000-0  00000+0 0  9991
2 66455   5.9035 272.2250 2323209 225.0283 115.1414  2.28261137  4983
Epoch: 2026-06-20T09:36Z
TLE epoch observation values (Epoch: 2026-06-20T09:36:21.858Z)
Latitude
0.10576°
Longitude
-139.36806°
Altitude
21,314.471 km
Speed
3.526 km/s
True Right ascension
18h 13m 21s
True Declination
0° 06' 20"
Sunlit
Object was in daylight at epoch
Visualization orbit readout
Latitude
Unknown
Longitude
Unknown
Altitude
Unknown
Speed
Unknown
Apparent Right ascension
Unknown
Apparent Declination
Unknown
Sunlit
N/A
Visualization observer readout
Local Sidereal Time
10:18:55
Azimuth
Unknown
Elevation
Unknown
Doppler factor
Unknown
Orbital elements
Apogee altitude
23,650.738 km
Perigee altitude
12,328.468 km
Semi-major axis
24,367.74 km
Eccentricity
0.23232
Inclination
5.9035°
RAAN
272.225°
Arg. of periapsis
225.0283°
True anomaly
136.11682°
Mean anomaly
115.1414°
Eccentric anomaly
125.92101°
Mean motion
0.57058 °/min
Orbital period
630.93 mins
BSTAR
0
Loading maneuver chart data...
Computing Atmospheric mass density...
Loading historical data...
Loading historical data...
Loading historical data...
Loading historical data...
Loading historical data...
Loading historical data...
Loading historical data...
Other satellites on launch #261 in the year 2025 (2025-11-13 UTC)

Documentation

Showing up to 5 results
|